Regional Weather Roundup
Issued by NWS

Home | Current Version | Previous Version | Graphics & Text | Print | Product List | Glossary On
Versions: 1 2 3 4 5 6 7 8 9 10 11 12 13 14 15 16 17 18 19 20 21 22 23 24 25 26 27 28 29 30 31 32 33 34 35 36 37 38 39 40 41 42 43 44 45 46 47 48 49 50
000
ASUS45 KABQ 091201
RWRNM
NEW MEXICO REGIONAL WEATHER ROUNDUP
NATIONAL WEATHER SERVICE ALBUQUERQUE NM
500 AM MST TUE FEB 09 2016

NOTE: "FAIR" MEANS FEW OR NO CLOUDS BELOW 12,000 FEET AGL WITH NO
       SIGNIFICANT WEATHER OR OBSTRUCTIONS TO VISION.

      THIS PRODUCT IS RELEASED AS TWO VERSIONS.  ONE VERSION NEAR
      THE TOP OF THE HOUR CONTAINING PRELIMINARY DATA FROM ALBUQUERQUE
      AND OTHER STATIONS.  A FINAL VERSION WITH ADDITIONAL DATA IS
      ISSUED ABOUT 10 MINUTES AFTER THE HOUR.

NMZ501-503-504-510>518-091300-
NORTHWEST PLATEAU/NORTHCENTRAL MOUNTAINS

CITY           SKY/WX    TMP DP  RH WIND       PRES   REMARKS
FARMINGTON     CLOUDY    21  17  84 NE5       30.42R WCI  15
6HR MIN TEMP:  21; 6HR MAX TEMP:  31;

SANTA FE       CLOUDY    28  20  71 N10       30.37S WCI  19
6HR MIN TEMP:  21; 6HR MAX TEMP:  33;

TAOS           CLOUDY    18  12  79 N7        30.42R WCI   8

$$
NMZ402-403-502-505>509-091300-
WESTCENTRAL MOUNTAINS/SOUTHWEST MOUNTAINS

CITY           SKY/WX    TMP DP  RH WIND       PRES   REMARKS
GALLUP         CLEAR     19  15  84 CALM      30.44R
6HR MIN TEMP:  17; 6HR MAX TEMP:  27;

SILVER CITY      N/A     32  19  59 N7        30.37R WCI  26

$$
NMZ407-409-411-412-091300-
SOUTHERN DESERTS

CITY           SKY/WX    TMP DP  RH WIND       PRES   REMARKS
DEMING         PTCLDY    29  15  56 E6        30.35R WCI  23
6HR MIN TEMP:  28; 6HR MAX TEMP:  40;

HOLLOMAN AFB   CLOUDY    23  10  57 N6        30.36R WCI  16
ALAMOGORDO     CLOUDY    28  14  54 CALM      30.36R
T OR C         CLEAR     36  20  52 N3        30.37R
6HR MIN TEMP:  34; 6HR MAX TEMP:  42;


$$
NMZ519>523-091300-
CENTRAL VALLEYS/CENTRAL HIGHLANDS

CITY           SKY/WX    TMP DP  RH WIND       PRES   REMARKS
ALBUQUERQUE    CLOUDY    29  20  69 E6        30.39S WCI  23
6HR MIN TEMP:  29; 6HR MAX TEMP:  39;

DOUBLE EAGLE   CLOUDY    24  18  78 W5        30.40S WCI  18
CLINES CORNERS CLOUDY    30  19  63 W14       30.34S WCI  19
6HR MIN TEMP:  25; 6HR MAX TEMP:  31;

BELEN          FAIR      24  16  71 CALM      30.39S
6HR MIN TEMP:  24; 6HR MAX TEMP:  41;

SOCORRO        NOT AVBL

$$
NMZ524>526-539-540-091300-
SOUTHCENTRAL MOUNTAINS

CITY           SKY/WX    TMP DP  RH WIND       PRES   REMARKS
RUIDOSO          N/A     32  16  51 W9        30.41R WCI  24

$$
NMZ527>531-091300-
NORTHEAST HIGHLANDS/NORTHEAST PLAINS

CITY           SKY/WX    TMP DP  RH WIND       PRES   REMARKS
LAS VEGAS      CLOUDY    27  16  63 S10       30.34S WCI  17
6HR MIN TEMP:  23; 6HR MAX TEMP:  28;

RATON          CLOUDY    18  13  80 NE9       30.35R WCI   7
6HR MIN TEMP:  17; 6HR MAX TEMP:  25;

CLAYTON        CLOUDY    32  19  58 W10       30.35S WCI  24
6HR MIN TEMP:  27; 6HR MAX TEMP:  36;


$$
NMZ532>537-091300-
EASTCENTRAL PLAINS

CITY           SKY/WX    TMP DP  RH WIND       PRES   REMARKS
TUCUMCARI      CLOUDY    28  17  63 W5        30.37R WCI  23
6HR MIN TEMP:  19; 6HR MAX TEMP:  29;

CANNON AFB     CLEAR     27  14  57 NW6       30.37R WCI  21
6HR MIN TEMP:  26; 6HR MAX TEMP:  30;

CLOVIS AIRPORT CLOUDY    25  14  63 W7        30.38S WCI  17

$$
NMZ028-029-538-091300-
SOUTHEAST PLAINS

CITY           SKY/WX    TMP DP  RH WIND       PRES   REMARKS
ROSWELL        CLOUDY    26  15  63 NW5       30.41R WCI  20
6HR MIN TEMP:  25; 6HR MAX TEMP:  32;

ARTESIA        CLEAR     25  18  74 NW9       30.41R WCI  15
CARLSBAD       CLOUDY    24  16  71 W10       30.40R WCI  14
6HR MIN TEMP:  23; 6HR MAX TEMP:  33;

HOBBS          CLEAR     25  16  68 NW6       30.40R WCI  18


$$



USA.gov is the U.S. government's official web portal to all federal, state and local government web resources and services.